This is the latest recevied weather packets stored in our database for station/object PY2UTU-WX. If no packets are shown the sender has not sent any weather packets the latest 10 day(s).
| Time | Temp. | Humidity | Pressure | Rain* | Wind** | Luminosity | Snow |
|---|---|---|---|---|---|---|---|
| 1778074046 | 25.56° C | 98% | 928.7 hPa | - | - | - | - |
| 1778073147 | 25° C | 98% | 928.7 hPa | - | - | - | - |
| 1778072246 | 25° C | 98% | 928.9 hPa | - | - | - | - |
| 1778071346 | 25° C | 98% | 928.9 hPa | - | - | - | - |
| 1778070446 | 25° C | 98% | 928.8 hPa | - | - | - | - |
| 1778069546 | 24.44° C | 98% | 928.9 hPa | - | - | - | - |
| 1778068646 | 23.33° C | 98% | 928.8 hPa | - | - | - | - |
| 1778067746 | 22.78° C | 98% | 928.5 hPa | - | - | - | - |
| 1778066846 | 22.78° C | 98% | 928.5 hPa | - | - | - | - |
| 1778065946 | 22.22° C | 98% | 928.4 hPa | - | - | - | - |
| 1778065046 | 21.67° C | 98% | 928.1 hPa | - | - | - | - |
| 1778064146 | 21.67° C | 98% | 927.9 hPa | - | - | - | - |
| 1778063246 | 21.67° C | 98% | 927.9 hPa | - | - | - | - |
| 1778062346 | 21.11° C | 98% | 927.8 hPa | - | - | - | - |
| 1778061446 | 20.56° C | 98% | 927.5 hPa | - | - | - | - |
| 1778060546 | 20.56° C | 98% | 927.3 hPa | - | - | - | - |
| 1778059646 | 21.67° C | 98% | 927.2 hPa | - | - | - | - |
| 1778058746 | 22.78° C | 98% | 927 hPa | - | - | - | - |
| 1778057846 | 22.78° C | 98% | 927 hPa | - | - | - | - |
| 1778056946 | 22.78° C | 98% | 926.8 hPa | - | - | - | - |
| 1778056046 | 22.78° C | 98% | 926.7 hPa | - | - | - | - |
| 1778055146 | 22.78° C | 98% | 926.6 hPa | - | - | - | - |
| 1778054246 | 22.78° C | 98% | 926.4 hPa | - | - | - | - |
| 1778053346 | 22.22° C | 98% | 926.4 hPa | - | - | - | - |
| 1778052446 | 22.78° C | 98% | 926.6 hPa | - | - | - | - |
* Rain since midnight (hover to see other rain measurements)
** Current wind speed in m/s (hover to see current wind gust speed)